CW4340 Weather Reports


time (UTC)temp
C
wind
direction
speed
KPH
gust
KPH
rain 1hr
cm
rain 24hr
cm
rain mn
cm
humidity
%
barometer
mb
20260510011504 20 190 0.0 0.0 1.91 1.96 1.96 90 1010.7
20260510011005 20 354 0.0 0.0 1.88 1.93 1.93 90 1010.8
20260510010504 20 180 0.0 0.0 1.83 1.88 1.88 89 1011.4
20260510010004 20 178 0.0 0.0 1.70 1.75 1.75 88 1011.8
20260510005505 20 284 0.0 0.0 1.45 1.50 1.50 88 1011.9
20260510005004 21 347 0.0 0.0 1.04 1.09 1.09 87 1012.3
20260510004504 21 15 0.0 0.0 0.76 0.81 0.81 86 1012.2
20260510004004 22 41 0.0 4.8 0.58 0.64 0.64 85 1012.5
20260510003505 23 20 0.0 0.0 0.41 0.46 0.46 85 1012.0
20260510003004 23 314 0.0 0.0 0.18 0.23 0.23 87 1011.9
20260510002504 23 180 0.0 0.0 0.13 0.18 0.18 87 1011.4
20260510002004 24 180 0.0 0.0 0.05 0.10 0.10 87 1011.0
20260510001504 24 178 0.0 0.0 0.00 0.05 0.05 86 1011.0
20260510001004 24 207 0.0 0.0 0.00 0.05 0.05 86 1010.6
20260510000004 24 278 0.0 0.0 0.00 0.05 0.05 86 1010.2
20260509235504 24 350 0.0 0.0 0.00 0.05 0.05 86 1010.2
20260509235004 24 155 0.0 0.0 0.00 0.05 0.05 86 1010.1
20260509234504 24 202 0.0 0.0 0.00 0.05 0.05 86 1009.7
20260509234004 24 177 0.0 8.0 0.00 0.05 0.05 86 1009.6
20260509233504 24 179 0.0 4.8 0.00 0.05 0.05 85 1009.7
20260509233005 25 164 0.0 1.6 0.00 0.05 0.05 85 1009.6
20260509232504 25 164 0.0 0.0 0.00 0.05 0.05 84 1009.6
20260509232004 25 169 0.0 0.0 0.00 0.05 0.05 84 1009.7
20260509231505 25 174 0.0 0.0 0.00 0.05 0.05 84 1009.6
20260509231004 25 172 0.0 0.0 0.00 0.05 0.05 84 1009.7
20260509230504 25 170 0.0 0.0 0.00 0.05 0.05 83 1009.5
20260509230004 25 192 0.0 0.0 0.00 0.05 0.05 83 1009.5
20260509225503 25 185 0.0 0.0 0.00 0.05 0.05 82 1009.5
20260509225004 25 191 0.0 0.0 0.00 0.05 0.05 82 1009.5
20260509224504 25 186 0.0 0.0 0.00 0.05 0.05 82 1009.5
20260509224005 25 177 0.0 0.0 0.00 0.05 0.05 82 1009.5
20260509223504 25 176 0.0 0.0 0.00 0.05 0.05 81 1009.5
20260509223005 25 197 0.0 0.0 0.00 0.05 0.05 81 1009.5
20260509222505 26 182 0.0 0.0 0.00 0.05 0.05 81 1009.3
20260509222004 26 176 0.0 1.6 0.00 0.05 0.05 81 1009.3
20260509221504 27 169 0.0 1.6 0.00 0.05 0.05 81 1009.2
20260509220504 29 178 0.0 1.6 0.00 0.05 0.05 78 1008.9
20260509215504 29 180 0.0 0.0 0.00 0.05 0.05 77 1008.5
20260509214504 29 279 0.0 0.0 0.00 0.05 0.05 77 1008.5
20260509213504 30 279 0.0 0.0 0.00 0.05 0.05 78 1008.6
20260509213005 30 279 0.0 0.0 0.00 0.05 0.05 77 1008.6
20260509212504 30 279 0.0 0.0 0.00 0.05 0.05 77 1008.5
20260509212004 29 278 0.0 0.0 0.00 0.05 0.05 77 1008.5
20260509211004 29 277 0.0 0.0 0.00 0.05 0.05 78 1008.8
20260509210504 29 276 0.0 0.0 0.00 0.05 0.05 78 1008.8
20260509210004 29 271 0.0 0.0 0.00 0.05 0.05 77 1008.8
20260509205504 28 274 0.0 0.0 0.00 0.05 0.05 79 1008.9
20260509205005 28 340 0.0 0.0 0.00 0.05 0.05 79 1008.9
20260509204504 28 343 0.0 0.0 0.00 0.05 0.05 81 1009.0
20260509204004 28 343 0.0 0.0 0.00 0.05 0.05 80 1009.1
20260509203504 28 5 0.0 0.0 0.00 0.05 0.05 81 1009.1
20260509203004 28 5 0.0 0.0 0.00 0.05 0.05 80 1009.2
20260509202505 28 5 0.0 0.0 0.00 0.05 0.05 80 1009.3
20260509202005 28 5 0.0 0.0 0.00 0.05 0.05 80 1009.3
20260509201503 28 5 0.0 0.0 0.00 0.05 0.05 81 1009.4
20260509201004 28 5 0.0 0.0 0.00 0.05 0.05 81 1009.5
20260509200504 28 5 0.0 0.0 0.00 0.05 0.05 80 1009.5
20260509195504 28 5 0.0 0.0 0.00 0.05 0.05 80 1009.7
20260509194504 28 5 0.0 0.0 0.00 0.05 0.05 81 1009.7
20260509194004 28 5 0.0 0.0 0.00 0.05 0.05 81 1009.5
20260509193506 28 4 0.0 0.0 0.00 0.05 0.05 81 1009.6
20260509193004 28 355 0.0 0.0 0.00 0.05 0.05 82 1009.7
20260509192504 27 355 0.0 0.0 0.00 0.05 0.05 83 1009.8
20260509192004 27 177 0.0 0.0 0.00 0.05 0.05 83 1010.0
20260509191504 27 177 0.0 0.0 0.00 0.05 0.05 83 1010.0
20260509191004 27 177 0.0 0.0 0.00 0.05 0.05 84 1010.1
20260509190503 27 177 0.0 0.0 0.00 0.05 0.05 83 1010.1
20260509185504 27 177 0.0 0.0 0.00 0.05 0.05 82 1010.3
20260509185004 27 177 0.0 0.0 0.00 0.05 0.05 83 1010.4
20260509184503 27 177 0.0 0.0 0.00 0.05 0.05 83 1010.3
20260509184004 27 177 0.0 0.0 0.00 0.05 0.05 83 1010.3
20260509183504 27 189 0.0 0.0 0.00 0.05 0.05 83 1010.3
20260509183004 27 189 0.0 0.0 0.00 0.05 0.05 84 1010.5
20260509182005 27 198 0.0 0.0 0.00 0.05 0.05 84 1010.6
20260509181504 27 198 0.0 0.0 0.00 0.05 0.05 83 1010.7
20260509181004 27 198 0.0 0.0 0.00 0.05 0.05 83 1010.7
20260509180504 27 198 0.0 0.0 0.00 0.05 0.05 83 1010.8
20260509180005 27 198 0.0 0.0 0.00 0.05 0.05 83 1010.7
20260509175004 27 198 0.0 0.0 0.00 0.05 0.05 83 1010.8
20260509174504 27 198 0.0 0.0 0.00 0.05 0.05 83 1010.9
20260509173504 27 175 0.0 0.0 0.00 0.05 0.05 83 1011.0
20260509173005 27 182 0.0 0.0 0.00 0.05 0.05 83 1011.0
20260509172504 27 182 0.0 0.0 0.00 0.05 0.05 84 1011.1
20260509172004 27 182 0.0 0.0 0.00 0.05 0.05 84 1011.1
20260509171504 27 182 0.0 0.0 0.00 0.05 0.05 84 1011.1
20260509171004 27 183 0.0 0.0 0.00 0.05 0.05 85 1011.1
20260509170504 26 174 0.0 0.0 0.00 0.05 0.05 86 1011.1
20260509170003 26 172 0.0 0.0 0.00 0.05 0.05 87 1011.1
20260509165504 26 167 0.0 0.0 0.00 0.05 0.05 88 1011.1
20260509164504 26 167 0.0 0.0 0.00 0.05 0.05 90 1011.1
20260509164004 25 167 0.0 0.0 0.00 0.05 0.05 90 1011.1
20260509163504 25 167 0.0 0.0 0.00 0.05 0.05 91 1011.2
20260509163004 25 167 0.0 0.0 0.00 0.05 0.05 91 1011.2
20260509162504 25 167 0.0 0.0 0.00 0.05 0.05 92 1011.3
20260509162004 25 167 0.0 0.0 0.00 0.05 0.05 92 1011.4
20260509161504 25 170 0.0 0.0 0.00 0.05 0.05 93 1011.6
20260509161004 25 170 0.0 0.0 0.00 0.05 0.05 93 1011.5
20260509160504 25 170 0.0 0.0 0.00 0.05 0.05 93 1011.6
20260509160004 25 183 0.0 0.0 0.00 0.05 0.05 93 1011.7
20260509155504 25 188 0.0 0.0 0.00 0.05 0.05 94 1011.6
20260509154504 24 188 0.0 0.0 0.00 0.05 0.05 94 1011.5
20260509154004 24 188 0.0 0.0 0.00 0.05 0.05 94 1011.4
20260509153504 24 188 0.0 0.0 0.00 0.05 0.05 94 1011.5
20260509153004 24 188 0.0 0.0 0.00 0.05 0.05 94 1011.4
20260509152504 24 188 0.0 0.0 0.00 0.05 0.05 94 1011.4
20260509151504 24 188 0.0 0.0 0.00 0.05 0.05 94 1011.4
20260509151005 24 188 0.0 0.0 0.00 0.05 0.05 94 1011.2
20260509150004 24 188 0.0 0.0 0.00 0.05 0.05 94 1010.8
20260509145504 24 181 0.0 0.0 0.00 0.05 0.05 94 1010.7
20260509145004 24 181 0.0 0.0 0.00 0.05 0.05 94 1010.6
20260509144004 23 188 0.0 0.0 0.00 0.05 0.05 94 1010.5
20260509143504 23 188 0.0 0.0 0.00 0.05 0.05 94 1010.6
20260509142504 23 188 0.0 0.0 0.00 0.05 0.05 94 1010.6
20260509141504 23 188 0.0 0.0 0.00 0.05 0.05 94 1010.8
20260509141004 23 188 0.0 0.0 0.00 0.05 0.05 94 1010.8
20260509135504 23 188 0.0 0.0 0.00 0.05 0.05 94 1010.9
20260509135004 23 188 0.0 0.0 0.00 0.05 0.05 94 1010.8
20260509134503 23 188 0.0 0.0 0.00 0.05 0.05 94 1010.9
20260509134003 23 188 0.0 0.0 0.00 0.05 0.05 94 1011.0
20260509133504 23 188 0.0 0.0 0.00 0.05 0.05 94 1011.1
20260509133004 23 188 0.0 0.0 0.03 0.05 0.05 94 1011.1
20260509132504 23 188 0.0 0.0 0.03 0.05 0.05 94 1011.2